Погода в Каменном

Россия / Курганская область     55°15′29″N   63°12′28″E
темп.,
°C
ветер,
м/с
пор.,
м/с
влажн.,
%
обл.,
%
осадки,
мм/ч
давл.,
гПа
погр.,
м
28 июня, вт
вт2823:00+14зюз3674100 0.0 1006136
02:00+13юз41178100 0.1 1004347
05:00+12юз51393100 0.8 1002559
08:00+12ссз7994100 1.6 1003623
11:00+10ссз798896 1.7 1005776
14:00+12ссз7770100 0.4 10051561
17:00+10ссз787397 0.7 10071039
20:00+9сз577338 0.1 1007827
29 июня, ср
ср2923:00+6зсз387776 0.1 1007232
02:00+4зсз51095100 0.0 1006288
05:00+7сз6118473 0.1 1006644
08:00+6зсз71182100 0.1 1006917
11:00+6зсз71289100 0.3 1006902
14:00+8сз81186100 0.1 10061273
17:00+12с6106962 0.1 1007881
20:00+12зюз48795 0.0 1006296
30 июня, чт
чт3023:00+8зюз47916 0.0 100693
02:00+10з3873100 0.0 1005156
05:00+9з488297 0.0 1005175
08:00+12зсз56715 0.0 1005399
11:00+15сз67555 0.0 10051237
14:00+17сз66508 0.0 10051985
17:00+16сз665135 0.0 10062022
20:00+14ссз357281 0.0 100692
1 июля, пт
пт123:00+9ссв228517 0.1 100812
02:00+7с37945 0.0 1009124
05:00+5с359466 0.0 1010145
08:00+9сз457510 0.0 1009437
11:00+14сз456516 0.0 10091040
14:00+13ссз666998 0.0 1009925
17:00+12ссз557449 0.1 1009779
20:00+10ссз2383100 0.0 1009230
2 июля, сб
сб223:00+10сз2483100 0.0 1009137
02:00+10сз2380100 0.0 100887
05:00+10зсз347974 0.0 100790
08:00+11сз2384100 0.0 1007147
11:00+16ссз356196 0.5 1006853
14:00+18ссз4551100 0.5 10062207
17:00+17ссз4660100 0.7 10061017
20:00+15зсз3774100 0.1 1006147